{"data":{"norad_id":67149,"epoch":"2026-05-25T03:01:06.511584Z","epoch_age_seconds":70947,"freshness":"FRESH","line1":"1 67149U 25301S   26145.12576981  .00002681  00000+0  38045-3 0  9994","line2":"2 67149  51.9026  97.6329 0000789  85.1566 274.9486 14.79941205 25248","mean_motion":14.79941205,"eccentricity":7.89e-5,"inclination_deg":51.9026,"raan_deg":97.6329,"arg_perigee_deg":85.1566,"mean_anomaly_deg":274.9486,"bstar":0.00038045,"rev_number":2524,"period_min":97.301162717474,"perigee_km":628.95682481601,"apogee_km":630.06263146971,"semimajor_km":7007.6467281429,"source":"CELESTRAK","updated_at":"2026-05-25T13:38:06.777210Z"}}